Location: Unspecified
(0.0000°N, 0.0000°E)
Time: 08:43:41
(UTC+00:00)

Explorer 11/Cluster Stage 4 - Pass Details

Date: 15 July 2020
Orbit: 467 x 1259 km, 28.8° (Epoch: 03 August)

Event Time Altitude Azimuth Distance (km) Brightness Sun altitude
Rises 14:20:29 0° 334° (NNW) 3,703 10.5 50.9°
Reaches altitude 10° 14:25:30 10° 6° (N) 2,948 9.9 49.8°
Maximum altitude 14:27:48 12° 24° (NNE) 2,907 9.7 49.4°
Drops below altitude 10° 14:30:11 10° 43° (NE) 3,089 9.7 48.9°
Sets 14:35:49 0° 73° (ENE) 4,162 10.0 47.7°
